Showing default

TIANHUI 6B, 55839

Orbit data source: Space-Track

TIANHUI 6B, 55839 is a payload satellite owned by G. Cehui dili (CN) in SSO that was launched on Thu, 09 Mar 2023 UTC via a CHANG ZHENG 4C launch vehicle from the Taiyaun Space Center, China (TSC). Payload-class satellites include a variety of spacecraft equipped with specific instruments for various scientific and technological missions. These include communications satellites like Starlink; space stations such as the ISS; scientific satellites like the Hubble; Earth observation satellites from companies like Planet Labs, Umbra, and HawkEye 360; GPS; miniature CubeSats for education and research; and military/defense satellites.

Loading next visibility...
Identifier
55839, 2023-030D
Orbit
SSO
Country
Flag of CNCN / PRC
Related business
Manufacturer
DFH
Mission
Operational Civil Radar Imaging
Bus & Motor
CAST-2000?, Unknown motor
Mass
~1,000 kg wet, ~1,000 kg dry
Launch date (UTC)
2023-03-09 (3 years ago)
Launch vehicle
CHANG ZHENG 4C
Launch site
Taiyaun Space Center, China (TSC)
Object type
Payload
Rocket body
Debris
Shape & HBR
Box + 2 Pan, 3.0 m
Radar Cross Section
8.157 m², Large (>1 m²)

Expand to show TLE details & history
Last TLE update: 22 hours ago

TLE from 22 hours ago
0 TIANHUI 6B
1 55839U 23030D   26172.50643694 -.00000006  00000-0  25584-4 0  9998
2 55839  99.0148 180.6862 0001719  36.4951 323.6331 14.01360537167993
Epoch: 2026-06-21T12:09Z
TLE epoch observation values (Epoch: 2026-06-21T12:09:16.151Z)
Latitude
-0.00004°
Longitude
88.66318°
Altitude
890.961 km
Speed
7.407 km/s
True Right ascension
12h 02m 44s
True Declination
0° 00' 00"
Sunlit
Object was in daylight at epoch
Visualization orbit readout
Latitude
Unknown
Longitude
Unknown
Altitude
Unknown
Speed
Unknown
Apparent Right ascension
Unknown
Apparent Declination
Unknown
Sunlit
N/A
Visualization observer readout
Local Sidereal Time
21:25:36
Azimuth
Unknown
Elevation
Unknown
Doppler factor
Unknown
Orbital elements
Apogee altitude
887.535 km
Perigee altitude
885.037 km
Semi-major axis
7,264.423 km
Eccentricity
0.00017
Inclination
99.0148°
RAAN
180.6862°
Arg. of periapsis
36.4951°
True anomaly
323.62142°
Mean anomaly
323.6331°
Eccentric anomaly
323.62726°
Mean motion
3.50543 °/min
Orbital period
102.7 mins
BSTAR
0.000025584
Loading maneuver chart data...
Computing Atmospheric mass density...
Loading historical data...
Loading historical data...
Loading historical data...
Loading historical data...
Loading historical data...
Loading historical data...
Loading historical data...
Other satellites on launch #30 in the year 2023 (2023-03-09 UTC)

Documentation

Showing up to 5 results
|